Wind_Speed
11 11 10 10 10 10 10 11 10 10 9 9 8 8 8 7 7 6 5 4 2 2 2 1 1 2 2 2 2 2 2 3 4 4 4 5 4 4 4 5 4 4 3
11 10 10 9 9 9 9 10 10 10 9 8 7 7 7 7 7 6 5 4 3 4 3 2 1 2 1 2 3 2 3 2 3 4 4 4 4 4 4 5 5 4 3
10 10 9 9 9 9 9 9 9 9 9 9 8 7 7 7 7 6 5 4 4 4 3 2 2 1 1 1 2 2 2 2 2 3 3 4 5 5 4 5 5 5 4
10 9 9 9 9 8 9 9 9 9 9 8 7 7 6 6 7 6 5 5 4 4 4 3 3 1 1 1 1 2 2 1 2 2 3 4 4 5 6 5 5 4 4
9 9 9 9 9 9 9 9 8 8 8 7 7 6 6 6 6 6 6 4 4 4 3 3 2 2 1 0 1 1 1 2 2 2 3 4 5 5 5 5 5 5 4
10 9 9 9 9 9 9 9 8 7 7 7 7 6 6 6 5 5 5 4 4 3 2 2 2 1 1 1 0 0 1 1 2 2 3 4 5 5 5 6 6 5 5
10 9 9 9 9 9 9 9 8 7 7 7 6 5 5 6 5 5 5 4 4 3 2 3 2 2 1 1 1 1 1 1 1 2 2 3 5 4 4 5 6 5 5
10 9 9 9 9 9 9 9 9 7 7 6 6 5 5 6 5 5 5 4 4 3 3 3 2 2 2 1 1 1 1 2 2 2 3 3 4 4 4 4 5 5 6
10 9 9 9 9 8 8 9 9 8 7 6 6 5 6 6 6 5 4 4 4 3 2 2 3 2 2 1 1 1 2 2 3 3 3 3 4 5 5 5 5 6 6
9 9 9 9 9 8 8 9 9 9 7 6 6 5 6 6 6 5 4 3 3 3 3 3 2 2 2 2 2 2 2 3 3 4 4 4 4 5 5 6 6 6 7
9 9 9 9 9 9 8 9 8 8 8 7 6 6 6 5 5 5 4 4 3 3 3 2 2 2 3 2 3 3 3 4 4 5 5 5 5 5 6 7 7 7 7
8 8 8 8 8 9 9 8 7 7 7 7 7 6 5 5 5 4 4 3 3 3 3 3 2 3 4 3 4 4 4 5 5 5 6 6 6 6 6 7 8 8 8
7 8 8 7 8 8 8 7 6 6 7 7 7 6 6 5 5 4 3 3 3 3 3 3 2 3 4 4 4 5 6 6 6 6 7 7 7 7 7 7 8 8 8
7 7 7 7 8 8 7 6 6 6 6 6 6 7 6 5 4 4 4 3 3 3 4 3 3 3 4 4 5 6 6 7 7 8 8 8 8 8 8 7 8 9 8
7 7 8 8 8 7 7 6 6 6 6 6 5 6 6 5 4 3 3 3 3 4 4 5 5 5 5 6 6 7 7 7 8 8 8 8 8 8 9 9 9 9 9
8 9 8 8 7 6 7 6 6 6 6 6 5 5 5 5 5 4 3 3 3 4 4 5 5 6 6 7 8 7 7 8 8 8 8 8 8 9 9 9 9 10 10
9 9 9 8 8 7 7 7 7 6 6 6 5 5 5 5 5 5 4 4 4 4 5 5 6 7 7 8 8 8 8 8 8 9 9 9 9 9 9 8 9 9 9
10 10 9 9 8 8 8 8 7 7 7 7 7 7 6 5 5 5 5 5 5 5 6 6 7 8 8 9 8 8 8 9 9 10 10 9 9 9 9 9 9 9 9
11 11 10 9 9 8 8 8 7 8 8 8 8 8 8 7 7 6 6 6 6 7 7 8 8 9 9 9 8 9 9 10 10 10 10 9 9 9 9 9 8 8 8
12 11 11 10 10 10 10 9 8 9 9 8 9 9 8 8 8 8 7 7 8 8 9 9 9 9 9 9 9 9 9 10 9 9 10 9 10 9 8 8 8 8 8
14 13 13 12 11 11 10 9 10 10 10 10 10 10 9 8 8 8 9 9 9 10 10 9 9 9 10 10 10 9 10 10 10 10 9 8 9 9 9 9 9 9 9
15 14 14 14 13 12 11 11 11 11 11 10 11 10 10 9 10 10 10 10 10 11 10 10 10 10 10 11 10 10 11 11 10 10 10 9 9 10 10 10 11 9 9
16 16 16 16 15 14 14 13 13 13 13 12 11 11 11 11 11 11 11 11 11 11 11 11 11 11 12 12 12 11 11 11 11 11 11 10 10 11 12 12 12 12 11
19 17 17 17 17 16 16 15 15 14 14 13 13 12 12 12 12 11 12 12 12 13 13 12 12 12 13 14 14 13 13 12 12 11 12 12 11 12 12 12 13 13 13
20 20 19 19 19 18 17 17 16 16 15 15 15 14 14 13 13 13 13 14 14 14 14 13 12 13 14 14 14 13 13 13 12 11 11 12 12 13 13 13 13 13 14
21 22 21 20 20 20 19 18 17 17 17 17 16 16 15 14 14 14 15 15 15 15 14 14 14 14 14 14 14 13 13 13 13 13 12 13 14 14 14 15 14 14 14
Wind_Direction
19 19 21 29 35 38 39 41 41 38 37 37 36 38 38 34 30 29 29 35 51 62 66 93 125 166 175 199 190 191 205 209 197 201 202 199 200 207 210 206 201 203 203
15 16 21 30 35 37 36 37 37 37 35 34 35 35 31 31 32 30 25 25 32 32 39 66 109 136 153 167 166 179 187 187 179 190 203 202 204 211 204 199 201 203 201
12 14 21 28 33 35 36 37 37 37 36 34 33 32 31 34 34 30 31 29 19 16 31 39 48 88 124 155 161 164 173 180 188 194 206 199 201 207 214 207 205 211 219
10 14 20 27 32 35 34 34 34 34 33 31 27 29 28 32 34 32 31 32 24 19 26 38 54 70 125 157 175 181 192 214 222 215 211 213 218 218 220 212 219 222 226
18 21 22 26 29 28 29 29 27 28 31 28 25 26 20 24 28 26 24 25 26 24 27 32 47 50 42 197 195 195 214 233 231 230 223 224 227 227 224 222 226 231 239
22 22 23 25 25 24 25 27 27 25 25 23 23 23 14 14 16 18 18 20 19 16 36 55 63 43 61 71 104 201 240 262 255 250 237 229 233 237 234 230 232 236 242
18 21 23 24 23 25 26 26 23 22 23 21 23 19 8 5 4 4 6 6 13 19 19 51 53 50 52 50 8 329 349 350 318 304 281 252 245 239 236 239 236 237 242
18 22 23 23 22 24 25 25 24 25 23 21 20 16 13 8 3 359 355 356 3 2 19 31 32 16 8 338 335 339 341 327 316 301 283 271 258 253 247 240 239 243 246
14 17 19 19 19 21 24 24 21 18 17 17 15 17 21 16 10 5 0 0 356 354 347 5 20 12 353 355 349 330 306 307 300 289 282 279 272 264 254 247 247 249 249
10 13 15 17 17 20 21 18 14 14 16 19 20 24 29 25 22 18 10 5 359 348 346 349 354 349 336 326 310 297 295 294 292 289 285 281 274 265 254 249 251 252 253
3 7 13 15 15 13 12 11 13 15 19 17 20 23 22 18 15 13 9 4 359 352 344 336 328 323 318 308 308 304 301 297 288 285 287 282 274 269 260 254 254 251 252
357 2 5 7 8 6 3 4 7 10 17 21 18 17 18 16 11 5 2 356 353 341 330 327 328 324 316 305 300 301 301 303 297 288 285 281 275 270 266 261 257 253 252
347 353 359 0 2 3 0 358 360 11 18 19 15 14 14 9 5 359 349 346 340 328 325 334 332 309 308 298 299 299 295 295 294 290 284 280 276 273 273 267 258 251 249
337 343 348 353 355 356 356 355 2 4 8 13 14 14 11 5 0 355 345 335 331 324 320 318 314 307 302 297 294 297 290 289 292 288 285 280 276 273 274 271 264 255 249
323 324 331 338 344 348 352 356 359 349 357 5 4 6 8 5 359 348 337 335 331 329 323 312 312 309 304 304 303 295 288 286 289 290 286 283 278 275 275 274 265 256 253
312 309 312 321 327 333 341 347 348 340 340 346 351 352 357 1 359 344 330 324 322 318 319 315 315 306 301 305 305 298 293 290 288 287 288 286 280 279 277 271 262 258 257
304 302 302 309 317 322 324 335 336 332 335 341 343 338 339 347 350 346 324 311 307 306 306 308 304 306 304 304 300 296 293 292 291 287 286 284 279 278 277 270 262 257 256
298 300 299 300 303 308 315 317 327 326 333 341 335 329 330 328 327 332 331 317 305 301 299 298 296 299 300 304 304 301 295 293 292 289 287 280 277 275 275 272 262 256 254
287 290 293 293 294 296 303 306 319 317 315 321 325 321 321 322 316 315 316 317 310 305 301 297 291 291 295 300 301 301 299 297 293 288 285 277 273 273 274 273 264 260 255
279 280 284 286 287 289 291 296 304 310 303 304 312 315 312 314 313 309 308 309 305 307 307 302 296 290 292 294 296 295 294 294 293 290 285 276 272 269 270 269 266 264 260
276 273 275 278 279 281 284 287 292 299 297 296 301 307 306 307 308 308 306 305 303 303 306 308 302 299 297 296 295 293 295 294 292 291 285 280 276 270 270 273 272 270 268
275 274 270 271 273 278 282 283 285 290 291 288 294 298 298 301 302 303 300 301 302 301 303 303 300 301 302 303 299 295 296 294 295 294 287 277 274 275 273 270 271 271 267
272 272 269 268 270 274 278 281 280 281 283 279 284 287 288 292 295 296 297 296 298 300 302 300 296 298 301 301 297 293 296 296 291 292 290 280 273 275 275 273 274 275 271
269 270 268 268 270 270 273 275 276 274 276 277 280 285 285 287 289 290 294 294 295 296 297 296 294 296 298 299 296 292 292 293 289 287 285 282 278 276 276 272 273 276 278
267 267 266 267 268 268 268 271 273 272 272 275 278 282 282 282 284 287 290 292 294 293 292 292 292 295 297 298 297 296 295 295 292 288 284 282 280 278 275 273 273 276 278
265 264 264 265 265 266 266 267 270 272 271 272 276 280 279 279 280 283 286 290 292 292 290 290 291 293 295 296 297 296 293 293 290 286 282 281 281 281 278 276 276 276 277
Height
5881 5879 5878 5877 5875 5874 5873 5873 5872 5872 5871 5871 5871 5871 5870 5870 5870 5870 5870 5870 5870 5870 5871 5871 5871 5872 5872 5873 5873 5874 5875 5875 5876 5877 5878 5879 5880 5881 5881 5882 5883 5884 5885
5882 5880 5879 5877 5876 5875 5874 5873 5873 5872 5872 5872 5872 5871 5871 5870 5870 5870 5870 5870 5870 5870 5870 5870 5871 5871 5872 5872 5873 5874 5874 5875 5876 5877 5878 5879 5880 5880 5881 5881 5882 5883 5884
5882 5881 5879 5878 5876 5876 5875 5874 5874 5873 5873 5872 5872 5872 5871 5871 5871 5871 5871 5871 5870 5870 5870 5870 5871 5871 5871 5872 5873 5873 5874 5875 5876 5877 5877 5878 5879 5880 5881 5881 5882 5883 5884
5881 5880 5879 5878 5877 5876 5875 5875 5874 5874 5873 5873 5873 5872 5872 5872 5871 5871 5871 5871 5871 5870 5870 5870 5871 5871 5872 5872 5873 5874 5874 5875 5876 5876 5877 5878 5878 5879 5880 5881 5881 5882 5883
5880 5880 5880 5878 5877 5877 5876 5875 5874 5874 5874 5873 5873 5873 5873 5872 5872 5871 5871 5871 5871 5870 5869 5870 5871 5872 5872 5872 5873 5874 5874 5875 5875 5876 5877 5877 5878 5878 5879 5880 5881 5881 5882
5882 5881 5880 5879 5878 5877 5876 5875 5875 5874 5874 5873 5873 5873 5873 5872 5872 5872 5871 5871 5871 5870 5870 5870 5871 5871 5872 5872 5873 5874 5874 5874 5875 5876 5876 5877 5877 5878 5878 5879 5880 5880 5881
5883 5882 5881 5880 5879 5878 5877 5876 5875 5874 5874 5874 5873 5873 5873 5872 5872 5872 5872 5871 5871 5871 5871 5871 5871 5872 5872 5872 5873 5873 5874 5874 5875 5875 5876 5876 5877 5877 5877 5878 5879 5879 5880
5884 5883 5881 5880 5879 5878 5877 5876 5875 5875 5874 5874 5873 5873 5873 5872 5872 5872 5872 5871 5871 5871 5871 5871 5872 5872 5872 5872 5873 5873 5873 5874 5874 5875 5875 5875 5876 5876 5876 5877 5878 5878 5879
5885 5884 5882 5881 5880 5879 5878 5877 5876 5875 5874 5874 5873 5873 5873 5872 5872 5872 5871 5871 5871 5871 5871 5871 5872 5872 5872 5872 5872 5873 5873 5873 5874 5874 5874 5874 5875 5875 5875 5876 5876 5877 5877
5886 5884 5883 5881 5880 5879 5879 5878 5877 5876 5875 5874 5874 5873 5873 5872 5872 5872 5871 5871 5871 5871 5871 5871 5871 5871 5872 5872 5872 5872 5873 5873 5873 5873 5873 5873 5873 5874 5874 5875 5875 5875 5876
5886 5885 5883 5882 5881 5880 5879 5878 5877 5876 5875 5874 5874 5873 5873 5872 5872 5872 5871 5871 5871 5871 5871 5871 5871 5871 5871 5872 5872 5872 5872 5872 5872 5872 5872 5872 5872 5872 5873 5873 5873 5873 5874
5886 5885 5884 5883 5881 5880 5880 5879 5878 5876 5875 5874 5874 5873 5872 5872 5871 5871 5871 5871 5871 5871 5871 5871 5871 5871 5871 5871 5871 5871 5871 5871 5871 5871 5871 5871 5871 5871 5871 5871 5871 5871 5872
5886 5885 5884 5883 5882 5881 5880 5878 5878 5876 5875 5874 5874 5873 5872 5872 5871 5871 5871 5871 5871 5871 5871 5871 5871 5871 5870 5870 5870 5870 5870 5869 5869 5869 5869 5869 5869 5869 5869 5869 5869 5869 5869
5886 5885 5884 5882 5881 5881 5879 5878 5877 5876 5875 5874 5873 5873 5872 5871 5871 5870 5870 5870 5870 5870 5870 5870 5870 5870 5870 5869 5869 5869 5868 5868 5868 5867 5867 5867 5867 5867 5866 5866 5866 5866 5866
5885 5884 5883 5882 5881 5880 5879 5878 5877 5876 5875 5874 5873 5872 5872 5871 5870 5870 5870 5870 5870 5870 5869 5869 5869 5869 5869 5868 5868 5867 5867 5867 5866 5865 5865 5865 5865 5864 5864 5864 5864 5864 5864
5883 5883 5882 5881 5880 5880 5879 5878 5876 5875 5874 5873 5872 5872 5871 5870 5870 5870 5870 5869 5869 5869 5869 5868 5868 5868 5867 5867 5866 5866 5865 5865 5864 5864 5863 5863 5862 5862 5862 5861 5861 5862 5862
5882 5881 5880 5880 5879 5878 5877 5877 5876 5875 5874 5873 5872 5871 5871 5870 5869 5869 5869 5868 5868 5868 5868 5867 5867 5867 5866 5865 5865 5864 5864 5863 5862 5862 5861 5861 5860 5860 5859 5859 5859 5859 5860
5880 5879 5879 5878 5878 5877 5876 5876 5875 5874 5873 5873 5872 5871 5870 5869 5868 5868 5867 5867 5867 5867 5867 5866 5866 5866 5865 5864 5863 5862 5862 5861 5860 5860 5859 5858 5858 5858 5857 5857 5857 5857 5857
5877 5877 5877 5876 5876 5875 5875 5874 5874 5873 5872 5872 5871 5870 5869 5868 5868 5867 5866 5866 5866 5866 5865 5865 5864 5864 5863 5862 5862 5861 5860 5859 5858 5857 5857 5857 5856 5856 5855 5855 5855 5855 5855
5875 5875 5874 5874 5874 5873 5873 5872 5872 5872 5871 5870 5870 5869 5868 5867 5866 5866 5865 5865 5865 5864 5864 5863 5863 5862 5861 5860 5860 5859 5858 5857 5856 5855 5855 5855 5854 5854 5854 5853 5853 5853 5853
5872 5872 5872 5871 5871 5871 5870 5870 5870 5870 5869 5869 5868 5867 5866 5866 5865 5864 5864 5863 5863 5863 5862 5861 5861 5860 5859 5858 5857 5857 5856 5855 5854 5853 5853 5852 5852 5852 5852 5851 5851 5851 5851
5868 5869 5869 5868 5868 5868 5868 5868 5867 5867 5867 5867 5866 5865 5865 5864 5863 5862 5862 5861 5861 5861 5860 5859 5859 5858 5857 5856 5855 5854 5854 5853 5852 5851 5851 5850 5850 5850 5850 5849 5849 5849 5849
5864 5864 5864 5865 5865 5865 5865 5865 5864 5864 5864 5864 5863 5863 5862 5862 5861 5861 5860 5859 5859 5858 5858 5857 5856 5856 5855 5854 5853 5852 5851 5850 5849 5849 5848 5848 5847 5847 5847 5847 5847 5846 5846
5859 5859 5860 5861 5860 5860 5861 5861 5861 5861 5861 5860 5860 5860 5860 5859 5859 5858 5858 5857 5856 5856 5855 5854 5854 5853 5852 5851 5850 5849 5849 5848 5847 5846 5846 5845 5845 5845 5844 5844 5844 5844 5844
5854 5854 5855 5855 5856 5856 5857 5857 5857 5857 5857 5857 5857 5857 5856 5856 5856 5855 5855 5854 5854 5853 5852 5851 5851 5850 5849 5848 5847 5846 5845 5845 5844 5844 5843 5842 5842 5841 5841 5841 5841 5840 5840
5848 5849 5849 5850 5851 5852 5852 5852 5852 5852 5852 5853 5853 5853 5853 5852 5852 5852 5851 5851 5850 5849 5849 5848 5847 5847 5846 5845 5844 5843 5842 5842 5841 5840 5840 5839 5839 5838 5838 5837 5837 5837 5837